Regional Weather Roundup
Issued by NWS

Home | Current Version | Previous Version | Graphics & Text | Print | Product List | Glossary On
Versions: 1 2 3 4 5 6 7 8 9 10 11 12 13 14 15 16 17 18 19 20 21 22 23 24 25 26 27 28 29 30 31 32 33 34 35 36 37 38 39 40 41 42 43 44 45 46 47 48 49 50
000
ASUS43 KDMX 281407
RWRIA

WEATHER ROUNDUP FOR IOWA
NATIONAL WEATHER SERVICE DES MOINES IA
800 AM CST SAT FEB 28 2015

NOTE: "FAIR" INDICATES FEW OR NO CLOUDS BELOW 12,000 FEET WITH NO
SIGNIFICANT WEATHER AND/OR OBSTRUCTIONS TO VISIBILITY.

* - THESE STATIONS ARE NOT NWS STATIONS...THUS NOT UNDER NWS
QUALITY CONTROL.  THEY ALSO DO NOT REPORT WEATHER SUCH
AS PRECIPITATION OR FOG.

IAZ001>003-012>014-020>022-031>034-043>046-281500-
   NORTHWEST IOWA

CITY           SKY/WX    TMP DP  RH WIND       PRES   REMARKS
CARROLL *      SUNNY     -2  -8  78 SE7       30.50S WCI -16
CHEROKEE *     PTCLDY    -6  -9  84 S6        30.46S WCI -18
DENISON *      SUNNY      5  -2  72 CALM      30.46S
LE MARS *      CLEAR     -2  -6  84 CALM      30.45S
ORANGE CITY *  CLEAR      3  -2  78 S3        30.41R
SHELDON *      CLEAR      0  -6  78 S10       30.41S WCI -17
SIOUX CITY     CLEAR      5  -1  76 SE7       30.45S WCI  -7
SPENCER        MOCLDY    -1  -7  75 S12       30.44F WCI -18
STORM LAKE *   MOSUNNY   -2  -6  84 S12       30.45S WCI -20
$$

IAZ055>058-069>071-079>083-090>094-281500-
   SOUTHWEST IOWA

CITY           SKY/WX    TMP DP  RH WIND       PRES   REMARKS
ATLANTIC *     SUNNY      3  -2  78 CALM      30.50F
AUDUBON *      SUNNY     -4  -8  84 CALM      30.48F
CLARINDA *     MOSUNNY    9   5  85 CALM      30.53F
COUNCIL BLFS * SUNNY      9   3  78 SE8       30.46F WCI  -4
CRESTON *      CLOUDY     5   0  78 SE5       30.51S WCI  -4
HARLAN  *      SUNNY      3   1  92 CALM      30.52F
LAMONI         CLOUDY     8   2  76 E5        30.53R WCI   0
RED OAK *      SUNNY      9   3  78 CALM      30.51F
SHENANDOAH *   MOSUNNY   10   5  79 SE8       30.51F WCI  -1
$$

IAZ047>049-059>061-072>074-084-281500-
   CENTRAL IOWA

CITY           SKY/WX    TMP DP  RH WIND       PRES   REMARKS
AMES           PTSUNNY   -6  -8  91 SE3       30.57S
ANKENY *       PTSUNNY    0  -8  71 CALM      30.58S
CHARITON *     CLOUDY     5  -2  72 SE7       30.55S WCI  -7
DES MOINES       N/A      4  -4  69 SE8       30.56S WCI  -9
GRINNELL*      MOSUNNY   -2  -8  78 E7        30.58S WCI -16
KNOXVILLE *    SUNNY      1  -8  66 SE6       30.56S WCI -10
MARSHALLTOWN   MOSUNNY   -9 -13  83 SE6       30.57S WCI -22
PELLA *        MOSUNNY    0  -4  85 SE5       30.61R WCI -10
PERRY *          N/A      0  -4  85 SE5       30.54S WCI -10
$$

IAZ004>006-015-016-023>025-035-036-281500-
   NORTH CENTRAL IOWA

CITY           SKY/WX    TMP DP  RH WIND       PRES   REMARKS
ALGONA *       SUNNY     -4  -8  84 S7        30.50S WCI -18
CLARION *      SUNNY     -2  -8  78 SE13      30.52S WCI -21
ESTHERVILLE    PTSUNNY   -9 -12  87 S9        30.46R WCI -26
FORT DODGE *   MOSUNNY   -8 -11  84 E5        30.52R WCI -19
MASON CITY     MOSUNNY  -12 -16  82 CALM      30.54S
FOREST CITY *  SUNNY     -8 -15  71 CALM      30.51F
IOWA FALLS *     N/A     -9 -15  77 SE5       30.55S WCI -21
$$

IAZ007>011-017>019-026>030-037>042-050>054-066-281500-
   NORTHEAST IOWA

CITY           SKY/WX    TMP DP  RH WIND       PRES   REMARKS
CEDAR RAPIDS   PTSUNNY   -9 -12  87 E5        30.61S WCI -20
CHARLES CITY * SUNNY     -8 -13  77 SE7       30.57S WCI -22
CLINTON *      MOSUNNY  -15 -18  84 E6        30.69R WCI -29
DECORAH *      SUNNY     -6 -11  77 S3        30.58R
DUBUQUE        PTSUNNY   -9 -15  75 CALM      30.62R
MONTICELLO *   SUNNY    -22 -29  69 CALM      30.65S
OELWEIN *      SUNNY     -9 -15  77 SE10      30.60R WCI -28
WATERLOO       PTSUNNY  -19 -24  77 SE5       30.60S WCI -32
$$

IAZ064-065-067-068-078-281500-
   EAST CENTRAL IOWA

CITY           SKY/WX    TMP DP  RH WIND       PRES   REMARKS
DAVENPORT      PTSUNNY   -2  -8  76 SE7       30.66S WCI -15
IOWA CITY      PTSUNNY   -5 -11  75 CALM      30.67R
MT. PLEASANT * PTSUNNY   -2  -8  78 E7        30.63S WCI -16
MUSCATINE *    SUNNY    -13 -17  84 CALM      30.69R
QUAD CITIES    MOSUNNY  -10 -17  71 E3        30.67S
$$

IAZ062-063-075>077-085>089-095>099-281500-
   SOUTHEAST IOWA

CITY           SKY/WX    TMP DP  RH WIND       PRES   REMARKS
BURLINGTON     CLOUDY     6  -1  73 E7        30.63F WCI  -6
FAIRFIELD *    SUNNY      0  -9  65 SE6       30.62S WCI -12
FORT MADISON * CLOUDY     7   1  78 E7        30.63F WCI  -5
KEOKUK *       CLOUDY     9   1  72 SE9       30.63S WCI  -5
OSKALOOSA *      N/A      0  -6  78 SE6       30.61R WCI -12
CENTERVILLE *  CLOUDY    10   3  72 SE8       30.57S WCI  -1
OTTUMWA        MOSUNNY    1  -5  75 SE7       30.60R WCI -12
WASHINGTON *   SUNNY     -6  -6 100 E5        30.64S WCI -17
$$

ABBREVIATIONS USED IN REMARKS
   TC - TEMPERATURES IN CELSIUS
  WCI - WIND CHILL INDEX
   HX - HEAT INDEX
  VSB - VISIBILITY
$$



USA.gov is the U.S. government's official web portal to all federal, state and local government web resources and services.